When you browse on this site, cookies collect data to enhance your experience and personalize the content and advertising you see.
Visit our Privacy Policy to learn more. By continuing to use the site, you agree to this use of cookies and data.
  • In Hungary
  • List of Countries
  • For 7 days
  • Water Temperature
  • Satellite Maps
  • Weather Map
  • News
  • Weather Widgets
  • user-avatar
    Login

    Hourly Weather Jasiona

    Today, 24 January, Thursday

    Time Temperature Precipitation Wind Pressure Humidity
    00:00 -7°C° 0 mm 3 mps 732 mmHg 77%
    01:00 -7°C° 0 mm 2 mps 733 mmHg 78%
    02:00 -8°C° 0 mm 3 mps 733 mmHg 78%
    03:00 -8°C° 0 mm 3 mps 733 mmHg 79%
    04:00 -8°C° 0 mm 3 mps 733 mmHg 79%
    05:00 -8°C° 0 mm 3 mps 733 mmHg 79%
    06:00 -8°C° 0 mm 3 mps 733 mmHg 79%
    07:00 -8°C° 0 mm 3 mps 734 mmHg 77%
    08:00 -8°C° 0 mm 3 mps 735 mmHg 75%
    09:00 -8°C° 0 mm 3 mps 735 mmHg 73%
    10:00 -7°C° 0 mm 3 mps 735 mmHg 72%
    11:00 -7°C° 0 mm 3 mps 735 mmHg 70%
    12:00 -7°C° 0 mm 3 mps 735 mmHg 68%
    13:00 -6°C° 0 mm 3 mps 735 mmHg 66%
    14:00 -7°C° 0 mm 3 mps 735 mmHg 68%
    15:00 -7°C° 0 mm 3 mps 735 mmHg 69%
    16:00 -7°C° 0 mm 3 mps 735 mmHg 71%
    17:00 -7°C° 0 mm 3 mps 735 mmHg 72%
    18:00 -7°C° 0 mm 3 mps 735 mmHg 73%
    19:00 -7°C° 0 mm 3 mps 735 mmHg 75%
    20:00 -7°C° 0 mm 3 mps 735 mmHg 75%
    21:00 -7°C° 0 mm 3 mps 736 mmHg 76%
    22:00 -7°C° 0 mm 3 mps 736 mmHg 77%
    23:00 -6°C° 0.1 mm 2 mps 736 mmHg 78%

    Tomorrow, 25 January, Friday

    Time Temperature Precipitation Wind Pressure Humidity
    00:00 -6°C° 0.1 mm 2 mps 736 mmHg 80%
    01:00 -6°C° 0.1 mm 2 mps 736 mmHg 81%
    02:00 -6°C° 0.1 mm 2 mps 736 mmHg 82%
    03:00 -6°C° 0.1 mm 2 mps 736 mmHg 83%
    04:00 -7°C° 0.1 mm 2 mps 736 mmHg 85%
    05:00 -7°C° 0.1 mm 2 mps 736 mmHg 85%
    06:00 -7°C° 0.1 mm 2 mps 736 mmHg 85%
    07:00 -7°C° 0.1 mm 2 mps 736 mmHg 86%
    08:00 -6°C° 0.1 mm 2 mps 737 mmHg 84%
    09:00 -6°C° 0.1 mm 2 mps 737 mmHg 82%
    10:00 -6°C° 0.1 mm 2 mps 737 mmHg 81%
    11:00 -5°C° 0 mm 2 mps 737 mmHg 78%
    12:00 -6°C° 0 mm 3 mps 737 mmHg 75%
    13:00 -5°C° 0 mm 3 mps 737 mmHg 72%
    14:00 -6°C° 0 mm 3 mps 737 mmHg 73%
    15:00 -6°C° 0 mm 3 mps 737 mmHg 74%
    16:00 -5°C° 0 mm 2 mps 738 mmHg 75%
    17:00 -5°C° 0 mm 2 mps 738 mmHg 77%
    18:00 -3°C° 0 mm 1 mps 738 mmHg 79%
    19:00 -4°C° 0 mm 1 mps 738 mmHg 80%
    20:00 -4°C° 0 mm 1 mps 738 mmHg 81%
    21:00 -4°C° 0 mm 1 mps 738 mmHg 82%
    22:00 -6°C° 0 mm 1 mps 738 mmHg 83%
    23:00 -7°C° 0 mm 2 mps 738 mmHg 82%

    Day after tomorrow, 26 January, Saturday

    Time Temperature Precipitation Wind Pressure Humidity
    00:00 -7°C° 0 mm 2 mps 737 mmHg 81%
    01:00 -7°C° 0 mm 2 mps 737 mmHg 81%
    02:00 -6°C° 0 mm 2 mps 736 mmHg 80%
    03:00 -6°C° 0 mm 2 mps 735 mmHg 79%
    04:00 -6°C° 0 mm 2 mps 735 mmHg 78%
    05:00 -6°C° 0.2 mm 3 mps 734 mmHg 79%
    06:00 -5°C° 0.2 mm 4 mps 733 mmHg 80%
    07:00 -4°C° 0.2 mm 4 mps 732 mmHg 82%
    08:00 -4°C° 0.2 mm 5 mps 732 mmHg 81%
    09:00 -2°C° 0.2 mm 5 mps 731 mmHg 80%
    10:00 -2°C° 0.2 mm 5 mps 730 mmHg 79%
    11:00 -1°C° 0.4 mm 5 mps 730 mmHg 79%
    12:00 0°C° 0.4 mm 5 mps 729 mmHg 79%
    13:00 0°C° 0.4 mm 5 mps 728 mmHg 79%
    14:00 0°C° 0.3 mm 4 mps 728 mmHg 83%
    15:00 +1°C° 0.3 mm 3 mps 728 mmHg 87%
    16:00 +2°C° 0.3 mm 2 mps 728 mmHg 91%
    17:00 +1°C° 0 mm 2 mps 728 mmHg 92%
    18:00 +1°C° 0 mm 2 mps 729 mmHg 92%
    19:00 +1°C° 0 mm 2 mps 729 mmHg 93%
    20:00 +1°C° 0 mm 2 mps 729 mmHg 92%
    21:00 +1°C° 0 mm 2 mps 729 mmHg 92%
    22:00 +1°C° 0 mm 2 mps 730 mmHg 91%
    23:00 +1°C° 0.1 mm 2 mps 729 mmHg 91%

    27 January, Sunday

    Time Temperature Precipitation Wind Pressure Humidity
    00:00 +1°C° 0.1 mm 2 mps 729 mmHg 90%
    01:00 +1°C° 0.1 mm 2 mps 729 mmHg 90%
    02:00 +1°C° 0.1 mm 2 mps 729 mmHg 90%
    03:00 +1°C° 0.1 mm 2 mps 728 mmHg 90%
    04:00 +1°C° 0.1 mm 2 mps 728 mmHg 89%
    05:00 +2°C° 0.1 mm 2 mps 728 mmHg 90%
    06:00 +1°C° 0.1 mm 3 mps 727 mmHg 90%
    07:00 +1°C° 0.1 mm 3 mps 727 mmHg 90%
    08:00 +2°C° 0 mm 3 mps 727 mmHg 90%
    09:00 +2°C° 0 mm 3 mps 726 mmHg 89%
    10:00 +3°C° 0 mm 3 mps 726 mmHg 89%
    11:00 +3°C° 0 mm 3 mps 726 mmHg 87%
    12:00 +3°C° 0 mm 4 mps 725 mmHg 86%
    13:00 +3°C° 0 mm 4 mps 725 mmHg 84%
    14:00 +3°C° 0 mm 4 mps 725 mmHg 84%
    15:00 +3°C° 0 mm 4 mps 724 mmHg 84%
    16:00 +1°C° 0 mm 4 mps 724 mmHg 85%
    17:00 +1°C° 0 mm 4 mps 724 mmHg 85%
    18:00 +1°C° 0 mm 4 mps 724 mmHg 86%
    19:00 0°C° 0 mm 4 mps 724 mmHg 87%
    20:00 0°C° 0.2 mm 4 mps 724 mmHg 86%
    21:00 0°C° 0.2 mm 4 mps 724 mmHg 85%
    22:00 0°C° 0.2 mm 4 mps 723 mmHg 84%
    23:00 -1°C° 0.4 mm 4 mps 723 mmHg 85%

    28 January, Monday

    Time Temperature Precipitation Wind Pressure Humidity
    00:00 -1°C° 0.4 mm 4 mps 723 mmHg 86%
    01:00 -1°C° 0.4 mm 4 mps 723 mmHg 87%
    02:00 -1°C° 0.1 mm 4 mps 723 mmHg 87%
    03:00 0°C° 0.1 mm 3 mps 722 mmHg 88%
    04:00 0°C° 0.1 mm 3 mps 722 mmHg 88%
    05:00 0°C° 0.1 mm 3 mps 722 mmHg 88%
    06:00 0°C° 0.1 mm 3 mps 722 mmHg 88%
    07:00 0°C° 0.1 mm 3 mps 722 mmHg 88%
    08:00 +1°C° 0.1 mm 3 mps 723 mmHg 88%
    09:00 +1°C° 0.1 mm 3 mps 723 mmHg 87%
    10:00 +1°C° 0.1 mm 3 mps 723 mmHg 87%
    11:00 +2°C° 0.1 mm 3 mps 723 mmHg 88%
    12:00 +2°C° 0.1 mm 3 mps 723 mmHg 88%
    13:00 +4°C° 0.1 mm 2 mps 723 mmHg 88%
    14:00 +3°C° 0 mm 2 mps 723 mmHg 88%
    15:00 +3°C° 0 mm 2 mps 723 mmHg 89%
    16:00 +2°C° 0 mm 2 mps 723 mmHg 89%
    17:00 +2°C° 0 mm 2 mps 723 mmHg 89%
    18:00 +2°C° 0 mm 2 mps 723 mmHg 89%
    19:00 +1°C° 0 mm 2 mps 723 mmHg 89%
    20:00 +1°C° 0 mm 2 mps 724 mmHg 88%
    21:00 +1°C° 0 mm 2 mps 724 mmHg 88%
    22:00 +1°C° 0 mm 2 mps 725 mmHg 88%
    23:00 -1°C° 0.2 mm 4 mps 725 mmHg 87%

    29 January, Tuesday

    Time Temperature Precipitation Wind Pressure Humidity
    00:00 -1°C° 0.2 mm 5 mps 726 mmHg 85%
    01:00 -2°C° 0.2 mm 6 mps 727 mmHg 83%
    02:00 -1°C° 0 mm 5 mps 728 mmHg 84%
    03:00 -2°C° 0 mm 5 mps 728 mmHg 84%
    04:00 -4°C° 0 mm 5 mps 729 mmHg 85%
    05:00 -4°C° 0 mm 5 mps 730 mmHg 84%
    06:00 -3°C° 0 mm 4 mps 731 mmHg 83%
    07:00 -4°C° 0 mm 4 mps 732 mmHg 83%
    08:00 -4°C° 0 mm 4 mps 733 mmHg 79%
    09:00 -4°C° 0 mm 5 mps 734 mmHg 76%
    10:00 -4°C° 0 mm 5 mps 735 mmHg 73%
    11:00 -3°C° 0 mm 4 mps 735 mmHg 71%
    12:00 -3°C° 0 mm 4 mps 735 mmHg 69%
    13:00 -2°C° 0 mm 3 mps 735 mmHg 67%
    14:00 -2°C° 0 mm 3 mps 735 mmHg 70%
    15:00 -2°C° 0 mm 2 mps 735 mmHg 73%
    16:00 0°C° 0 mm 1 mps 735 mmHg 76%
    17:00 -3°C° 0 mm 2 mps 735 mmHg 77%
    18:00 -3°C° 0 mm 2 mps 735 mmHg 79%
    19:00 -4°C° 0 mm 2 mps 735 mmHg 80%
    20:00 -4°C° 0 mm 2 mps 735 mmHg 80%
    21:00 -4°C° 0 mm 2 mps 735 mmHg 79%
    22:00 -4°C° 0 mm 2 mps 735 mmHg 78%
    23:00 -4°C° 0 mm 2 mps 735 mmHg 78%
    Show more